Temp
14 14 14 14 14 14 14 15 15 15 15 14 14 14 14 14 14 14 14 13 14 14 14 14 13 13 12 13 13 13 13 13 13 13 13 12 12 12 12 12 11 11 11 10 10
14 14 14 14 14 14 15 14 15 15 15 15 15 14 14 14 14 14 14 14 14 14 14 14 13 13 13 13 13 13 13 14 14 14 13 13 13 13 12 11 11 12 11 10 10
13 14 14 14 14 14 14 15 15 15 15 15 15 15 15 14 14 14 14 14 14 14 14 14 14 14 14 14 13 13 14 14 13 14 14 13 12 12 11 11 11 11 12 10 10
13 14 14 14 14 14 14 15 15 15 15 15 15 15 15 14 14 14 14 14 14 14 15 14 14 14 14 14 14 14 13 14 13 14 13 13 12 11 11 11 10 11 11 10 9
13 13 13 14 14 14 14 14 15 15 15 15 15 15 15 14 14 14 14 14 14 15 14 14 14 14 14 14 14 13 14 13 14 14 13 13 12 12 11 10 10 11 10 10 10
12 12 13 13 13 14 14 14 14 15 15 15 15 15 15 14 14 14 14 14 14 15 14 14 14 14 14 14 14 14 13 13 14 13 13 13 13 13 11 11 10 11 11 10 10
12 12 12 13 13 13 14 14 14 14 15 15 15 15 15 15 14 14 15 14 15 15 14 14 14 15 14 14 14 14 14 13 13 14 13 12 12 12 12 12 12 11 11 10 10
11 11 12 12 13 13 13 13 14 14 14 15 15 15 15 14 14 14 15 15 15 14 14 14 14 14 15 15 15 15 14 14 13 13 13 13 12 12 12 12 12 11 11 11 11
11 12 12 12 12 12 13 13 14 14 14 14 15 15 15 15 14 14 15 15 15 15 14 14 14 14 15 14 15 14 14 13 12 12 12 12 13 12 12 12 12 11 11 11 11
11 11 12 12 12 12 13 13 13 13 14 14 15 15 15 15 15 14 15 15 15 15 14 14 14 14 14 14 14 13 13 13 12 13 12 12 13 13 13 12 11 11 11 11 11
11 11 11 12 12 12 13 13 13 13 14 14 15 15 15 15 15 14 14 15 15 14 14 14 14 14 15 14 15 14 14 13 12 13 12 13 13 12 12 11 12 12 11 11 11
11 11 11 12 12 12 13 12 13 14 14 15 14 15 15 15 15 15 14 14 14 14 14 13 14 15 14 14 14 15 14 13 13 14 14 13 13 12 11 12 13 13 13 12 11
11 11 11 12 11 12 12 13 13 13 14 15 15 15 14 15 15 15 15 14 14 15 14 14 15 14 14 14 14 14 14 13 13 13 14 13 13 13 13 12 11 13 12 12 12
11 11 11 12 11 12 12 12 12 13 13 15 16 15 14 14 15 15 15 14 14 14 14 14 15 15 15 14 13 13 13 14 14 12 12 12 12 14 13 13 13 12 13 13 12
11 11 11 12 12 11 11 12 12 12 11 15 15 15 15 15 15 15 15 14 15 14 14 14 15 15 15 14 14 14 13 14 13 12 12 12 11 14 14 13 13 13 13 13 13
11 11 11 11 12 11 11 11 12 11 12 14 14 15 15 14 15 15 15 14 15 14 14 15 15 15 15 14 14 15 13 12 12 11 10 12 12 15 14 14 14 14 14 14 13
11 11 11 11 12 12 12 11 11 11 13 14 14 14 15 15 14 14 14 14 14 14 14 14 14 15 14 14 13 14 12 11 9 9 9 12 12 14 15 15 15 15 14 14 13
10 10 11 11 11 12 11 11 11 12 12 13 14 14 14 14 14 14 14 14 14 14 14 14 15 15 15 15 15 14 12 13 9 7 9 11 12 14 16 15 15 15 15 14 14
10 10 10 10 11 11 11 11 12 11 12 13 13 14 14 14 14 14 14 14 14 14 14 15 15 15 16 16 15 13 11 12 12 10 10 12 13 15 15 15 16 15 15 15 14
9 9 9 10 10 10 10 11 11 11 12 12 13 14 13 14 14 14 14 15 14 14 14 15 14 15 15 15 14 14 14 12 12 8 10 11 12 15 16 16 16 15 15 15 14
10 9 9 9 10 10 10 10 11 11 11 12 12 12 13 13 14 14 14 15 15 15 15 15 15 13 14 14 15 14 13 12 12 11 10 9 13 16 16 16 16 16 15 15 15
9 9 9 9 9 9 9 9 9 10 11 12 12 12 12 12 13 14 15 14 14 15 16 16 16 15 15 16 16 16 15 14 14 13 12 12 15 16 16 16 16 16 16 15 15
8 8 8 9 8 9 9 9 9 9 10 11 11 11 12 12 13 13 14 14 14 15 15 16 15 15 14 14 14 15 16 14 15 15 13 13 16 17 16 16 16 16 16 15 15
8 7 7 8 8 9 9 8 8 8 9 10 10 10 11 11 12 13 14 14 14 14 15 16 16 16 15 16 16 15 16 15 15 15 15 16 17 17 17 17 16 16 16 15 15
7 7 7 6 6 7 7 7 8 8 8 9 9 10 10 11 11 12 13 14 13 14 14 15 15 16 17 17 17 17 16 16 16 16 15 16 16 17 16 17 17 17 16 16 15
6 6 6 6 6 6 6 6 7 7 8 8 9 9 9 10 10 11 12 13 13 13 14 13 13 14 16 16 17 16 16 16 16 15 16 15 16 16 16 17 17 17 17 16 16
5 5 5 5 5 5 5 6 6 6 6 7 8 8 8 8 9 10 10 11 12 12 13 12 12 13 16 16 16 15 16 16 16 16 16 16 17 17 17 17 17 17 17 17 16
Height
3159 3159 3159 3158 3158 3157 3157 3156 3156 3156 3158 3160 3162 3164 3166 3169 3170 3172 3172 3173 3173 3173 3173 3173 3173 3175 3175 3175 3175 3175 3177 3177 3177 3177 3179 3181 3181 3181 3181 3181 3181 3181 3182 3181 3181
3158 3157 3157 3157 3156 3156 3156 3155 3155 3155 3156 3158 3160 3163 3165 3168 3169 3171 3173 3173 3174 3174 3174 3176 3177 3176 3176 3175 3176 3177 3178 3179 3179 3178 3179 3181 3182 3182 3182 3181 3182 3183 3183 3182 3182
3155 3155 3154 3154 3155 3154 3154 3154 3154 3154 3155 3156 3159 3161 3163 3166 3169 3170 3171 3173 3175 3176 3176 3177 3178 3179 3179 3179 3179 3178 3178 3181 3181 3180 3180 3181 3183 3183 3182 3181 3184 3185 3184 3184 3183
3152 3152 3152 3151 3152 3152 3152 3153 3153 3153 3153 3155 3157 3159 3162 3165 3170 3169 3171 3173 3176 3176 3177 3177 3177 3179 3178 3179 3179 3179 3180 3181 3182 3182 3183 3182 3183 3184 3183 3182 3184 3185 3185 3185 3184
3150 3149 3149 3149 3148 3149 3149 3150 3151 3152 3153 3153 3155 3157 3160 3164 3167 3169 3171 3173 3176 3177 3178 3178 3177 3179 3178 3176 3177 3178 3180 3182 3182 3184 3185 3185 3185 3185 3184 3184 3183 3185 3186 3186 3187
3145 3145 3145 3145 3146 3146 3146 3147 3149 3150 3151 3151 3153 3155 3158 3162 3166 3168 3170 3173 3176 3177 3179 3180 3179 3179 3179 3178 3179 3181 3183 3184 3186 3186 3187 3188 3187 3188 3188 3187 3184 3184 3186 3187 3188
3141 3141 3141 3141 3142 3143 3143 3143 3145 3147 3149 3149 3151 3153 3156 3162 3163 3166 3169 3172 3175 3178 3179 3179 3179 3179 3179 3180 3181 3182 3185 3186 3188 3185 3184 3187 3189 3190 3189 3189 3190 3188 3187 3188 3189
3138 3137 3137 3137 3138 3139 3140 3140 3141 3143 3145 3147 3149 3151 3154 3154 3159 3163 3168 3171 3174 3175 3177 3178 3178 3179 3180 3181 3181 3181 3184 3186 3188 3187 3187 3190 3189 3190 3190 3189 3188 3187 3187 3189 3191
3134 3133 3133 3133 3134 3135 3136 3137 3138 3140 3142 3144 3147 3148 3151 3153 3157 3163 3167 3171 3173 3174 3175 3177 3178 3179 3179 3180 3182 3185 3184 3184 3186 3187 3188 3190 3189 3188 3189 3189 3189 3188 3190 3190 3192
3132 3130 3129 3129 3131 3132 3133 3134 3135 3137 3138 3141 3143 3148 3148 3150 3157 3160 3166 3169 3172 3172 3174 3175 3176 3177 3178 3179 3179 3179 3182 3183 3187 3187 3187 3188 3189 3188 3189 3190 3193 3191 3190 3191 3191
3129 3128 3127 3126 3127 3128 3131 3131 3134 3134 3134 3138 3141 3142 3143 3147 3153 3158 3162 3166 3168 3170 3171 3174 3174 3175 3176 3179 3180 3178 3181 3183 3185 3185 3188 3187 3188 3189 3190 3190 3188 3187 3188 3190 3191
3128 3126 3125 3125 3125 3125 3127 3127 3128 3130 3132 3133 3137 3139 3141 3142 3147 3153 3158 3162 3164 3167 3169 3174 3169 3173 3177 3178 3178 3179 3180 3180 3181 3181 3184 3185 3187 3188 3188 3186 3187 3188 3188 3189 3190
3126 3125 3123 3123 3123 3123 3124 3126 3127 3128 3129 3131 3133 3136 3139 3142 3144 3148 3153 3157 3161 3165 3168 3170 3169 3172 3174 3175 3177 3177 3179 3178 3178 3178 3179 3182 3181 3182 3183 3185 3186 3187 3189 3190 3190
3123 3123 3122 3121 3123 3122 3123 3124 3125 3128 3128 3128 3128 3133 3135 3139 3142 3147 3150 3155 3158 3161 3167 3169 3170 3172 3173 3176 3178 3177 3178 3176 3176 3177 3179 3181 3181 3178 3180 3182 3182 3184 3188 3189 3191
3121 3121 3121 3120 3121 3121 3123 3122 3124 3126 3127 3127 3126 3128 3132 3136 3141 3143 3147 3152 3154 3159 3165 3168 3168 3169 3171 3174 3172 3177 3177 3175 3174 3176 3177 3178 3181 3175 3178 3178 3178 3180 3185 3187 3192
3119 3119 3119 3119 3119 3120 3120 3121 3124 3128 3124 3125 3126 3127 3129 3133 3138 3141 3145 3149 3153 3158 3161 3165 3168 3169 3171 3171 3173 3173 3176 3175 3174 3176 3177 3174 3177 3170 3171 3170 3175 3179 3182 3185 3189
3116 3116 3116 3117 3118 3119 3120 3122 3126 3124 3125 3126 3126 3126 3128 3130 3136 3139 3141 3144 3148 3154 3156 3160 3165 3167 3167 3168 3169 3171 3173 3177 3178 3176 3172 3170 3173 3165 3168 3169 3174 3176 3179 3183 3187
3115 3114 3114 3115 3116 3117 3119 3124 3123 3124 3123 3123 3122 3124 3127 3130 3134 3137 3139 3142 3146 3150 3153 3156 3161 3163 3163 3165 3166 3166 3168 3166 3171 3174 3168 3168 3164 3162 3163 3166 3171 3175 3178 3183 3185
3114 3113 3113 3114 3115 3116 3119 3121 3121 3123 3122 3120 3119 3122 3125 3128 3131 3133 3136 3139 3142 3146 3151 3152 3158 3160 3159 3160 3164 3165 3165 3168 3167 3169 3168 3162 3157 3157 3158 3163 3167 3172 3176 3182 3184
3113 3113 3113 3113 3114 3115 3118 3119 3121 3121 3121 3120 3120 3121 3123 3125 3128 3131 3134 3137 3140 3143 3147 3150 3156 3156 3156 3158 3161 3162 3166 3169 3168 3170 3166 3157 3153 3151 3153 3158 3166 3171 3175 3181 3184
3112 3112 3113 3112 3113 3114 3115 3117 3118 3118 3119 3120 3120 3121 3121 3123 3126 3129 3132 3136 3137 3140 3143 3146 3152 3158 3155 3154 3155 3161 3162 3165 3166 3164 3158 3160 3149 3145 3150 3157 3165 3171 3175 3180 3185
3109 3110 3110 3110 3112 3111 3112 3112 3113 3115 3117 3118 3118 3119 3120 3122 3124 3125 3128 3130 3131 3133 3135 3139 3144 3150 3149 3150 3152 3154 3153 3158 3159 3158 3157 3157 3153 3149 3153 3160 3166 3171 3175 3180 3185
3105 3105 3105 3106 3107 3108 3110 3111 3112 3113 3113 3114 3115 3117 3118 3119 3122 3122 3124 3127 3129 3130 3130 3132 3135 3142 3145 3146 3145 3148 3147 3152 3154 3151 3152 3153 3152 3153 3156 3160 3165 3170 3175 3180 3184
3102 3102 3102 3102 3103 3105 3106 3106 3109 3109 3109 3110 3110 3113 3114 3115 3117 3119 3121 3125 3126 3127 3127 3127 3128 3131 3135 3139 3141 3142 3145 3148 3149 3149 3148 3145 3147 3152 3155 3158 3163 3167 3174 3179 3183
3097 3097 3096 3097 3099 3100 3101 3101 3103 3105 3106 3107 3108 3108 3109 3112 3113 3115 3118 3121 3124 3125 3126 3125 3125 3127 3130 3132 3134 3136 3138 3141 3143 3141 3142 3142 3144 3147 3151 3156 3160 3166 3171 3177 3181
3093 3093 3093 3094 3095 3097 3096 3096 3098 3101 3103 3104 3105 3105 3106 3106 3107 3112 3114 3117 3118 3122 3123 3123 3123 3122 3122 3124 3127 3130 3134 3136 3139 3137 3134 3137 3137 3142 3148 3151 3156 3161 3168 3173 3179
3088 3089 3089 3089 3090 3092 3092 3091 3093 3096 3096 3097 3099 3101 3100 3102 3104 3108 3110 3112 3113 3117 3119 3121 3121 3120 3119 3118 3124 3126 3123 3130 3133 3134 3133 3133 3137 3141 3144 3147 3153 3158 3165 3170 3176
Wind_Speed
10 10 9 8 7 7 6 4 4 6 8 9 12 15 19 16 12 7 4 5 6 5 3 2 3 3 2 6 4 10 3 7 19 14 13 15 8 4 2 4 8 13 9 15 19
12 12 12 10 9 8 7 5 4 5 7 8 11 15 19 17 14 10 5 4 4 3 2 2 1 3 4 5 2 5 4 12 12 6 5 4 4 6 3 3 3 5 7 11 14
14 14 14 13 12 11 9 7 5 4 6 9 11 15 19 19 15 12 8 7 6 5 3 2 5 7 4 2 4 5 13 10 12 7 3 3 1 4 2 3 2 4 3 11 12
16 16 16 16 14 13 12 9 7 5 4 8 11 14 19 21 16 14 11 9 5 5 2 6 15 5 4 4 5 14 7 16 15 9 6 4 7 7 3 3 5 9 9 10 8
16 16 17 17 17 15 14 12 10 7 5 6 10 14 19 24 16 15 14 9 7 3 4 6 8 4 6 4 11 5 12 18 17 10 6 4 5 8 9 15 7 6 7 5 5
19 18 17 17 17 17 16 15 13 11 7 7 9 14 19 26 20 18 15 12 8 5 5 4 7 10 9 15 13 13 15 17 10 13 11 2 7 5 9 13 4 2 1 3 2
18 19 19 18 17 16 17 16 14 12 11 9 7 13 17 24 24 19 19 15 12 7 2 3 1 7 10 18 3 11 11 19 15 15 11 9 8 5 4 9 8 5 2 6 5
14 15 17 18 17 16 16 17 16 14 12 11 9 10 16 27 31 24 23 20 16 11 7 5 5 3 3 2 4 14 21 14 20 19 8 12 8 5 4 6 5 5 5 5 7
12 13 14 16 16 15 16 16 16 14 14 12 10 10 18 28 32 26 23 17 14 12 11 8 7 5 1 4 11 9 10 14 20 13 14 7 8 9 7 10 7 10 10 9 7
11 11 11 13 13 14 15 15 15 15 15 13 12 10 11 25 27 31 22 17 17 14 13 12 10 8 7 11 7 11 15 15 13 12 20 11 12 9 9 14 14 14 12 9 7
11 10 10 9 10 12 12 14 15 18 17 16 7 15 12 22 27 31 25 22 21 18 13 12 14 13 3 13 10 5 14 14 6 14 18 11 10 14 18 22 14 4 15 11 6
10 9 9 7 8 10 12 14 16 18 16 16 15 12 16 24 30 30 29 27 26 24 19 15 23 12 13 16 18 9 14 19 16 18 16 12 9 13 25 25 17 15 9 8 12
10 8 7 6 7 9 9 12 12 13 15 12 15 17 18 20 28 30 32 29 26 29 24 19 13 7 13 19 17 16 11 11 9 10 19 20 20 19 24 25 30 22 18 11 10
10 7 7 6 6 5 5 7 8 7 7 5 15 15 27 21 23 26 31 31 28 30 23 19 20 20 19 9 13 12 10 7 9 12 3 9 7 21 25 26 22 25 17 15 9
9 7 6 5 4 4 4 5 6 6 1 1 10 12 26 27 14 27 25 30 35 30 26 21 7 16 17 15 15 6 14 16 17 15 13 12 7 16 22 29 29 30 20 14 10
8 7 6 5 5 6 5 6 10 4 2 2 7 11 24 31 13 22 24 25 31 30 24 25 18 4 10 13 14 9 18 16 10 10 8 18 15 20 24 30 24 24 21 11 12
8 6 6 6 6 6 7 10 6 1 3 5 3 9 18 31 24 22 25 27 29 31 30 30 24 16 13 9 14 13 23 4 2 2 7 11 13 30 12 28 15 16 16 13 12
4 5 7 7 6 7 11 14 3 3 11 7 4 9 14 22 25 19 27 28 31 24 24 29 15 16 21 18 17 17 27 10 6 4 3 15 10 21 19 22 16 16 10 8 11
2 2 6 7 8 9 13 13 4 5 10 9 5 12 16 11 7 28 20 31 32 31 23 12 9 7 14 18 20 25 33 18 5 5 2 8 15 9 20 25 19 19 22 10 10
1 3 3 5 8 10 14 11 7 4 3 7 6 6 11 7 10 10 14 21 29 28 28 22 9 8 16 19 20 10 19 15 6 5 4 7 10 17 23 25 22 23 22 15 12
7 5 6 5 7 9 11 11 13 8 3 2 4 3 6 7 9 8 10 13 19 25 27 29 16 17 19 17 21 16 21 19 11 7 4 3 6 7 22 26 27 23 19 19 23
11 10 10 9 5 7 11 12 14 10 7 5 4 3 5 5 7 10 11 11 9 13 25 29 16 27 26 20 21 16 13 28 12 5 6 2 3 12 23 23 22 21 19 22 20
11 14 14 14 9 11 11 12 10 9 11 9 11 10 10 7 6 11 15 13 6 7 9 21 34 14 8 8 16 28 22 23 18 8 8 6 4 15 24 26 24 22 19 25 23
11 12 17 19 19 16 15 15 14 11 13 11 10 10 11 12 14 11 18 13 12 8 7 15 23 26 26 19 19 22 19 20 17 20 20 23 14 8 19 26 26 24 21 27 26
12 15 18 15 21 19 18 17 18 18 19 16 14 13 14 14 16 19 22 19 14 8 6 9 9 26 31 34 33 29 29 22 22 24 29 23 25 13 17 26 28 25 23 27 28
12 16 18 21 19 21 22 22 22 20 20 21 19 17 16 18 19 18 21 25 19 12 12 3 2 1 17 32 36 35 28 20 18 20 27 29 27 13 16 27 32 30 29 29 25
14 15 19 21 23 24 25 26 26 22 23 23 24 23 24 21 20 20 19 20 25 16 15 6 2 7 4 12 26 29 33 27 23 23 21 29 16 16 21 28 29 33 33 27 27
Wind_Direction
300 299 303 309 316 325 336 333 287 238 222 202 197 197 194 183 169 160 140 147 176 177 177 159 161 174 0 343 89 121 79 138 143 155 139 163 190 158 340 7 72 94 95 94 87
288 289 291 292 295 301 311 325 317 268 230 208 197 194 195 187 176 162 170 145 134 153 242 335 197 223 341 352 265 218 112 168 158 163 130 143 277 342 280 153 96 80 105 107 85
283 282 282 282 282 286 290 299 308 293 243 213 198 192 194 188 181 167 181 147 102 98 120 77 338 260 246 174 10 238 156 170 176 172 162 141 177 45 317 221 110 31 76 102 70
277 276 275 276 274 274 275 278 286 293 274 223 202 191 191 185 191 191 175 152 118 83 11 331 297 148 216 247 252 228 224 166 183 203 174 165 106 70 335 170 114 103 89 69 68
280 276 272 271 271 270 270 270 269 273 272 244 209 194 190 185 189 186 181 158 129 124 81 60 73 196 82 257 163 211 182 168 188 187 194 168 105 53 104 126 139 98 84 71 44
284 278 272 266 263 264 265 262 261 261 257 251 219 198 194 186 184 186 189 169 144 129 116 156 76 99 74 121 139 144 159 180 180 192 179 132 145 5 124 126 155 263 12 6 317
281 275 271 267 261 257 259 260 256 253 252 248 234 206 197 188 188 192 187 182 181 163 143 351 54 89 108 137 120 199 187 170 203 202 209 173 151 127 115 148 157 194 271 245 267
291 277 266 260 260 254 251 254 253 250 248 244 237 216 188 195 194 189 193 187 177 183 173 220 241 122 81 166 123 155 159 163 180 193 219 181 175 179 168 187 234 222 241 254 266
298 289 273 257 251 252 247 248 250 245 244 240 233 226 196 201 197 196 195 188 189 193 200 217 226 176 128 200 148 165 190 144 167 195 194 209 205 187 213 214 248 246 253 248 268
299 299 287 261 249 247 246 244 248 244 241 238 231 220 199 204 194 203 194 195 195 203 211 216 237 224 224 183 174 232 239 160 174 183 187 243 236 204 216 223 222 255 261 264 286
303 303 298 274 250 247 247 241 244 244 237 232 211 213 195 200 194 200 202 211 195 200 218 226 251 244 247 224 257 353 196 194 190 190 193 215 210 206 215 216 240 249 252 257 265
306 306 301 280 250 242 236 237 241 251 247 242 226 204 203 192 196 194 197 197 195 197 212 229 248 247 272 245 260 289 229 231 239 223 217 219 225 233 221 238 263 271 275 291 262
300 305 299 283 246 248 242 240 247 257 266 243 232 203 186 197 200 197 201 206 205 201 208 222 248 256 262 257 256 261 248 234 252 220 221 257 265 220 231 240 242 261 267 274 289
291 298 294 285 250 249 252 242 239 255 272 246 223 207 194 199 202 197 204 204 208 212 211 229 236 249 272 186 325 263 246 234 229 210 208 245 276 232 227 234 237 248 267 263 262
278 281 278 274 252 215 213 233 203 186 308 215 190 186 197 206 206 193 194 204 210 206 208 215 241 247 231 254 262 233 225 227 221 227 208 220 218 232 226 234 237 244 242 245 241
272 264 256 251 225 202 198 180 173 171 257 110 172 194 191 203 188 196 196 205 207 208 216 227 234 201 265 268 258 256 222 213 237 231 242 232 214 241 219 222 225 236 233 236 232
270 249 235 232 220 202 190 171 159 213 45 46 292 217 204 207 200 192 193 197 201 209 220 228 240 251 244 219 183 227 206 205 282 203 226 224 215 230 232 231 228 233 230 244 222
277 244 221 221 206 188 178 164 151 92 26 45 247 217 214 216 211 190 196 202 206 210 225 233 246 253 246 255 241 224 201 207 197 196 209 194 240 235 228 218 216 224 200 201 214
316 251 211 208 203 193 180 184 133 55 16 43 116 199 198 199 204 214 215 212 209 214 211 202 190 181 231 223 220 202 213 238 294 139 227 210 244 220 208 204 200 214 210 188 184
269 192 201 209 204 198 191 182 162 33 70 74 79 129 151 171 185 213 197 220 216 220 216 232 221 256 203 212 179 227 247 232 242 183 230 255 256 223 205 200 192 199 192 174 168
237 221 223 233 214 202 201 204 216 237 226 118 113 98 154 168 157 174 186 220 214 220 221 229 208 181 168 192 206 215 222 228 257 250 155 304 271 228 190 177 184 191 198 161 164
234 230 228 238 214 199 201 207 222 212 206 188 168 196 227 219 179 166 163 176 178 222 222 223 223 193 220 225 227 209 235 226 216 213 216 220 330 147 172 183 191 191 199 177 177
232 232 232 234 228 221 217 218 231 242 224 208 199 214 225 223 201 188 184 184 182 199 205 223 221 189 163 201 201 213 220 216 233 242 217 165 139 163 179 193 203 198 193 192 181
234 224 230 237 236 237 233 235 223 233 232 238 233 218 224 234 234 206 214 206 206 200 217 227 225 223 205 209 192 189 194 192 224 257 261 252 277 192 195 206 203 201 194 195 190
230 226 229 225 233 237 243 243 237 226 233 233 239 241 239 236 238 237 236 228 234 231 223 211 222 234 235 239 230 225 209 215 228 259 247 256 287 270 191 206 200 198 188 196 198
243 229 233 234 234 237 243 250 250 250 245 241 244 244 243 254 254 242 250 248 256 228 212 92 90 330 229 236 232 216 213 224 234 240 251 262 284 220 192 202 201 201 198 197 199
252 245 241 242 246 243 242 247 253 254 260 256 251 252 257 252 254 260 259 251 246 251 243 285 325 1 213 223 211 199 204 215 225 218 252 258 235 231 197 210 206 205 206 201 205